1659 visiteurs
Prévisions de votre ville :
Vigilance : 13 départements le 15/07/20 à 06:00 - Voir la carte - Être alerté(e)

Paris Roissy CDG (95380) le 15/07/20 à 06:00 Choisir station

15.0°C 93 % O Rafale 17 km/h
Vit. moyenne 7 km/h

Relevés météo quotidiens pour la station de :

UTC
S: Synop
M: Metar
Loc T°C
(°C)
Td
(°C)
HR
(%)
Vis
(km)
Néb
(octa)
Vent
(km/h)
Pression
(mb)
Précipitations
(mm)
Temps
              MOY
10 min
DIR RAF 1h MESURE VAR SUR 3h    
S 00 h 02h 8.0 -2.6 47 60 - 54 93 1008.8 +0.4/3h 0.0/6h - 0.0/3h -
S 01 h 03h 8.1 -2.8 46 60 - 28 94 1008.6 -0.4/3h 0.0/1h -
S 02 h 04h 8.1 -1.4 51 60 - 33 97 1008.6 -0.3/3h 0.0/1h -
S 03 h 05h 8.0 -2.4 48 60 - 50 98 1007.7 -1.1/3h 0.0/3h -
S 04 h 06h 8.2 -2.8 46 60 - 63 98 1007.1 -1.5/3h 0.0/1h -
S 05 h 07h 8.4 -3.2 44 11 - 67 104 1007.6 -1.0/3h 0.0/1h -
S 06 h 08h 9.1 -3.2 42 2.6 - 33 97 1007.6 -0.1/3h 0.0/12h - 0.0/3h - 0.0/24h -
S 07 h 09h 9.7 -2.9 41 2.4 - 74 113 1007.9 +0.8/3h 0.0/1h -
S 08 h 10h 10.0 -3.0 40 5 - 72 113 1008.5 +0.9/3h 0.0/1h -
S 09 h 11h 10.5 -2.6 40 4.8 - 76 113 1009.1 +1.5/3h 0.0/3h -
S 10 h 12h 11.0 -2.4 39 5 - 81 124 1009.3 +1.4/3h 0.0/1h -
S 11 h 13h 11.6 -3.0 36 4.2 - 41 115 1009.2 +0.7/3h 0.0/1h -
S 12 h 14h 12.0 -3.0 35 3.2 - 44 130 1009.4 +0.3/3h 0.0/6h - 0.0/3h -
S 13 h 15h 13.3 -3.5 31 2.4 - 37 119 1010.0 +0.7/3h 0.0/1h -
S 14 h 16h 13.4 -3.9 30 3.7 - 80 117 1010.0 +0.8/3h 0.0/1h -
S 15 h 17h 13.9 -3.4 30 2.4 - 37 115 1010.1 +0.7/3h 0.0/3h -
S 16 h 18h 13.7 -3.6 30 2.3 - 65 117 1010.9 +0.9/3h 0.0/1h -
S 17 h 19h 13.3 -3.9 30 2.8 - 35 108 1011.2 +1.2/3h 0.0/1h -
S 18 h 20h 12.5 -4.2 31 6 - 33 104 1011.5 +1.4/3h 0.0/12h - 0.0/3h -
S 19 h 21h 11.1 -2.7 38 55 - 33 97 1012.1 +1.2/3h 0.0/1h -
S 20 h 22h 10.7 -3.1 38 60 - 63 89 1012.2 +1.0/3h 0.0/1h -
S 21 h 23h 10.6 -2.5 40 60 - 67 100 1012.4 +0.9/3h 0.0/3h -
S 22 h 00h 10.2 -1.8 43 60 - 61 104 1012.8 +0.7/3h 0.0/1h -
S 23 h 01h 9.9 -0.9 47 60 - 56 89 1013.1 +0.9/3h 0.0/1h -
evolution des temperatures
cumul des precipitations
vent moyen et rafales
pression atmospherique

Un tiret (-) signifie que les données ne sont pas disponibles.

Passez la souris sur les pictos temps pour avoir plus de précisions. Passez les flèches sur l'icône de la direction du vent pour voir la direction précise en degrés.

Les données de l'heure en cours sont disponibles à partir de H+15 minutes.


S signifie station Synop, plus complète qu'une station Metar (M). Il y a +1h de différence entre l'heure UTC et l'heure légale en hiver et +2h en été.

Td est la mesure du point de rosée.

HR est l'humidité relative/p>

Vis est la visibilité

Néb est la nébulosité du ciel (couverture nuageuse) exprimée en octas (de 0/8 à 8/8).

Vent moy 10 min donne le vent moyen sur les 10 minutes qui précèdent le relevé.

Vent raf 1h donne la rafale maximale mesurée dans l'heure qui précède le relevé.


Les données les plus anciennes remontent à avril 2014.

Les données présentées sur cette page proviennent des stations météo officielles. Les relevés sont effectués aux normes en vigueur (anémomètre à 10m de haut, thermomètre sous abri normalisé à 2m du sol...)

Météo 60 décline toute responsabilité en cas d'absence de données, d'erreurs, de mauvaise utilisation ou interprétation et n'est pas habilité à fournir des certificats intempéries.